User: anonymous
Location: Unspecified
(0.0000°N, 0.0000°E)
Time: 01:27:25
(UTC+02:00)
Language:

Delta 2 Rocket - Orbit

View from above orbital plane
View from above orbital plane
View from above satellite
View from above satellite

Ground track
Ground track

The orbit data is extracted from the following two-line orbital elements,

1 20453U 90008B   14259.68043488  .00007126  00000-0  45716-3 0   716
2 20453 035.6275 345.3221 0322159 131.4637 231.4211 14.73987578299284
Epoch (UTC): 16 September 2014 16:19:49
Eccentricity: 0.0322159
inclination: 35.6275°
perigee height: 422 km
apogee height: 875 km
right ascension of ascending node: 345.3221°
argument of perigee: 131.4637°
revolutions per day: 14.73987578
mean anomaly at epoch: 231.4211°
orbit number at epoch: 29928

The dashed part of the orbit path shows where the satellite is in the earth's shadow,  

DLR